Regional Weather Roundup
Issued by NWS

Home | Current Version | Previous Version | Text Only | Print | Product List | Glossary On
Versions: 1 2 3 4 5 6 7 8 9 10 11 12 13 14 15 16 17 18 19 20 21 22 23 24 25 26 27 28 29 30 31 32 33 34 35 36 37 38 39 40 41 42 43 44 45 46 47 48 49 50
000
ASUS43 KIND 221009
RWRIN

WEATHER ROUNDUP FOR INDIANA
NATIONAL WEATHER SERVICE INDIANAPOLIS IN
500 AM EST MON DEC 22 2014

NOTE: "FAIR" INDICATES FEW OR NO CLOUDS BELOW 12,000 FEET WITH NO
SIGNIFICANT WEATHER AND/OR OBSTRUCTIONS TO VISIBILITY.

* - STATION DOES NOT REPORT WEATHER SUCH AS PRECIPITATION OR FOG.

+ - STATION NOT QUALITY CONTROLLED BY THE NATIONAL WEATHER SERVICE.
    USE DATA WITH CAUTION...ESPECIALLY DEWPOINT AND RELATIVE
    HUMIDITY OBSERVATIONS.

INZ001>003-010>013-019-020-221100-
NORTHWEST INDIANA

CITY           SKY/WX    TMP DP  RH WIND       PRES   REMARKS
KNOX *+        CLOUDY    30  24  78 SE10      30.00S WCI  21
LA PORTE +     MOCLDY    30  28  93 E6        30.00F FOG     WCI  24
MICHIGAN CITY+ MOCLDY    30  23  74 SE5       30.01S WCI  25
MONTICELLO +   MOCLDY    29  27  90 SE5       29.99F WCI  24
RENSSELAER +   MOCLDY    32  30  93 E8        29.98F FOG     WCI  25
VALPARAISO     MOCLDY    28  25  88 SE6       30.00F WCI  22

$$

LMZ046-743>745-221100-
SOUTHERN LAKE MICHIGAN

STATION/POSITION TIME  TEMP WIND        PRES
                       AIR  DIR/SP/G
                 (UTC) (F)  (DEG/KT/KT) (MB)

$$

INZ004-005-014>016-021>024-221100-
NORTH CENTRAL INDIANA

CITY           SKY/WX    TMP DP  RH WIND       PRES   REMARKS
GOSHEN         PTCLDY    28  24  85 SE7       30.03S WCI  21
LOGANSPORT +   CLOUDY    28  25  86 E7        30.01S FOG     WCI  21
PERU/GRISSOM   CLOUDY    28  28 100 SE9       30.00F WCI  19
ROCHESTER +    MOCLDY    32  30  93 SE9       30.01F WCI  24
SOUTH BEND     MOCLDY    29  25  85 SE10      30.02F WCI  20
WARSAW +       MOCLDY    28  27  93 SE5       30.03S FOG     WCI  23

$$

INZ006>009-017-018-025>027-221100-
NORTHEAST INDIANA

CITY           SKY/WX    TMP DP  RH WIND       PRES   REMARKS
ANGOLA *+      CLEAR     25  21  86 SE8       30.03F WCI  16
AUBURN +       CLEAR     27  23  86 E6        30.05F FOG     WCI  20
FORT WAYNE     MOCLDY    25  22  88 E7        30.04F FOG     WCI  17
HUNTINGTON +   CLEAR     26  24  93 CALM      30.03R

$$

INZ028-029-035-036-043>045-051>053-221100-
WEST CENTRAL INDIANA

CITY           SKY/WX    TMP DP  RH WIND       PRES   REMARKS
GREENCASTLE +  CLOUDY    30  25  80 E5        29.98F WCI  25
LAFAYETTE      CLOUDY    30  26  85 E7        29.99F WCI  23
TERRE HAUTE    CLOUDY    32  28  85 E6        29.97F WCI  26

$$

INZ030>032-037>040-046>048-054>057-064-065-221100-
CENTRAL INDIANA

CITY           SKY/WX    TMP DP  RH WIND       PRES   REMARKS
CP ATTERBURY + CLOUDY    30  28  93 MISG      30.00F FOG
FRANKFORT +    MOCLDY    29  28  96 E9        30.00F WCI  21
INDIANAPOLIS   CLOUDY    29  25  85 E6        29.98F WCI  23
-EAGLE CREEK   CLOUDY    28  26  92 E3        29.98F
KOKOMO *+      CLOUDY    28  25  86 SE8       30.00F WCI  20
MARION +       MOCLDY    28  25  87 SE8       30.01F WCI  20
MT COMFORT *+  CLOUDY    30  23  74 SE5       30.00F WCI  25
SHELBYVILLE    CLOUDY    34  28  79 E6        29.99F WCI  29
ZIONSVILLE +   PTCLDY    28  25  86 E6        29.99F FOG     WCI  22

$$

INZ033-034-041-042-049-050-058-059-221100-
EAST CENTRAL INDIANA

CITY           SKY/WX    TMP DP  RH WIND       PRES   REMARKS
MUNCIE         PTCLDY    28  24  85 SE7       30.01F WCI  21

$$

INZ060-061-067>069-081>083-085>088-221100-
SOUTHWEST INDIANA

CITY           SKY/WX    TMP DP  RH WIND       PRES   REMARKS
EVANSVILLE     CLOUDY    36  31  82 CALM      29.96F
HUNTINGBURG *+ CLOUDY    37  28  70 SE6       29.96F
WASHINGTON +   CLOUDY    33  29  85 SE5       29.95F WCI  29

$$

INZ062-063-066-070>080-084-089>092-221100-
SOUTH CENTRAL AND SOUTHEAST INDIANA

CITY           SKY/WX    TMP DP  RH WIND       PRES   REMARKS
BLOOMINGTON    CLOUDY    31  27  85 SE7       29.97F WCI  24
SEYMOUR +      CLOUDY    34  30  86 CALM      30.01

$$




USA.gov is the U.S. government's official web portal to all federal, state and local government web resources and services.